Current weather by "City, St" or "zip code"  
 
Advertise Here

Current Conditions: La Grande/Union County Airport, OR

Unknown Precip


32.0 F

Last Updated on Jan 22 2021, 12:56 am PST
Humidity: 92%
Wind Speed: W 4.6 mph
Barometer 29.98 in
Dewpoint: 30.0 F
Visibility: 10.00 mi
Precip: Trace
Heat Index: NA
Wind Chill: 27 F
Current conditions at:

La Grande/Union County Airport, OR (KLGD)

Lat: 45.29066 Lon: 118.00884

Local Radar Image active severe weather and emergency alerts image image weather storm and storm spotter reports image weather observation monitoring service image
Local
Radar
Active
Alerts
Storm Reports Obs
Monitoring

Sign-up For Email & Text Message Weather Alert Notification Services


Advertise Here

Observation History for La Grande/Union County Airport, OR


Time Wind
(mph)
Vis
(mi)
Weather Precip (in) Temperature (F) Relative
Humidity
Wind
Chill
(F)
Heat
Index
(F)
Pressure
Air Dwpt altimeter
(in)
sea level
(mb)
Rmks
12:56 am PST W 4.6 10.00 Unknown Precip Trace 32.0 30.0 92% 27 NA 29.98 1017.1
11:56 pm PST NW 5.8 9.00 Unknown Precip Trace 32.0 30.9 96% 26 NA 29.99 1017.7
10:56 pm PST NW 4.6 9.00 Light Rain Trace 33.0 30.9 92% 29 NA 30.00 1017.8
9:56 pm PST NW 5.8 10.00 Overcast Trace 33.0 30.9 92% 28 NA 30.00 1017.8
8:56 pm PST N 0.0 9.00 Overcast -- 33.0 30.9 92% NA NA 30.01 1018.1
7:56 pm PST N 5.8 10.00 Overcast -- 34.0 30.9 89% 29 NA 30.00 1017.9
6:56 pm PST 3.5 10.00 Overcast -- 33.0 32.0 96% NA NA 30.01 1018.1
5:56 pm PST N 4.6 10.00 Overcast -- 34.0 32.0 92% 30 NA 30.01 1018.0
4:56 pm PST N 4.6 10.00 Overcast -- 35.0 32.0 89% 31 NA 30.01 1017.8
3:56 pm PST N 4.6 10.00 Overcast -- 36.0 32.0 86% 32 NA 30.00 1017.6
2:56 pm PST N 4.6 10.00 Overcast Trace 36.0 33.1 89% 32 NA 30.00 1017.6
1:56 pm PST N 0.0 10.00 Light Rain Trace 36.0 32.0 86% NA NA 30.01 1017.8
12:56 pm PST NE 5.8 10.00 Light Rain Trace 36.0 33.1 89% 31 NA 30.01 1018.0
11:56 am PST 4.6 2.00 Light Snow Fog/Mist Trace 34.0 32.0 92% 30 NA 30.03 1018.8
10:56 am PST S 12.7 7.00 Unknown Precip Trace 34.0 28.9 82% 25 NA 30.05 1019.6
9:56 am PST S 11.5 10.00 Unknown Precip Trace 34.0 28.0 79% 26 NA 30.05 1019.7
8:56 am PST S 11.5 10.00 Light Rain Trace 34.0 27.0 76% 26 NA 30.06 1019.8
7:56 am PST S 13.8 10.00 Overcast Trace 34.0 26.1 73% 25 NA 30.05 1019.7
6:56 am PST S 16.1 10.00 Light Rain Trace 34.0 26.1 73% 24 NA 30.05 1019.6
5:56 am PST S 13.8 10.00 Overcast Trace 35.0 24.1 64% 26 NA 30.06 1019.7
4:56 am PST S 10.4 10.00 Light Rain Trace 37.0 24.1 59% 30 NA 30.06 1019.5
3:56 am PST S 12.7 10.00 A Few Clouds -- 36.0 23.0 59% 28 NA 30.06 1019.6
2:56 am PST S 12.7 10.00 Partly Cloudy -- 37.0 21.9 54% 29 NA 30.07 1019.9
1:56 am PST S 13.8 10.00 Mostly Cloudy -- 35.0 23.0 61% 26 NA 30.08 1020.3

Regional Weather Observation


Meacham, OR (KMEH)

Overcast
30.0 F

Eastern Oregon Regional Airport at Pendleton, OR (KPDT)

Fog
32.0 F

Joseph State Airport AWOS, OR (KJSY)

Mostly Cloudy
29.0 F

Walla Walla Regional Airport, WA (KALW)

Overcast
32.0 F

Hermiston, Hermiston Municipal Airport, OR (KHRI)

Fog/Mist
35.0 F

Baker Municipal Airport, OR (KBKE)

Fog/Mist
31.0 F